Wetbulb
35.09 34.74 34.43 33.87 34.02 33.78 32.86 32.51 32.58 32.99 32.59 32.42 32.59 32.74 32.73 32.65 33.77 33.60 33.58 33.59 32.68 32.99 33.54 33.19 33.06 33.74 33.23 33.72 33.98 33.80 33.48 33.72 30.74 32.57 35.24 36.09 35.03 35.85 36.51 38.03 39.09 39.49 41.05
33.71 33.15 32.65 32.35 32.04 31.37 31.18 31.37 31.75 31.30 31.79 31.55 31.61 31.34 31.14 31.66 32.85 32.25 31.81 32.08 31.22 31.05 31.40 31.71 31.30 32.13 31.57 31.85 31.57 31.18 31.06 31.39 29.36 27.17 29.77 30.51 31.34 33.19 33.92 34.30 36.12 37.68 38.21
32.24 31.69 31.45 31.13 30.78 30.40 30.48 30.67 30.85 30.68 30.49 30.52 30.32 29.77 29.74 30.51 30.91 31.32 31.07 30.87 30.87 30.62 30.57 30.28 29.97 30.17 29.44 28.99 29.34 28.94 29.47 30.76 29.75 27.54 26.77 29.70 30.32 31.70 31.64 32.82 33.01 33.99 36.11
31.38 30.75 29.76 29.54 29.38 29.20 29.37 29.22 29.09 29.33 28.86 28.90 29.07 28.91 29.05 29.61 29.75 29.91 29.64 29.56 29.95 29.66 30.30 30.15 29.48 28.89 27.55 27.47 27.24 27.09 27.77 26.75 27.08 26.34 25.94 26.07 27.07 28.86 29.54 28.47 28.31 31.21 31.52
29.49 28.65 28.08 28.53 28.50 28.14 27.80 27.77 27.95 27.95 27.74 28.08 27.73 27.80 28.25 28.49 28.51 28.47 28.48 28.27 28.43 28.10 28.92 28.39 28.71 28.58 29.28 28.11 26.24 25.85 25.86 24.72 24.31 23.83 23.24 24.05 24.23 24.63 24.27 26.52 26.18 27.74 29.20
27.96 26.97 27.31 27.05 26.98 26.59 26.53 26.28 26.44 26.48 26.53 26.95 26.72 26.63 26.80 27.35 28.20 28.51 28.17 26.60 27.18 26.77 25.84 26.59 27.43 27.31 26.62 26.74 27.40 27.25 26.31 23.34 22.39 22.34 21.54 20.90 21.75 23.23 24.78 24.64 24.64 23.64 21.88
26.99 26.20 25.69 25.75 25.17 24.95 25.04 24.91 24.65 24.61 25.47 25.43 26.02 25.92 25.49 26.34 27.34 27.45 27.22 26.05 25.61 25.48 25.39 24.86 24.60 25.13 24.84 24.86 25.01 25.79 25.54 25.98 25.65 22.67 20.49 21.05 21.15 22.88 23.69 22.91 24.31 24.55 24.38
25.54 24.72 24.10 23.99 23.71 23.71 23.55 23.19 23.73 24.19 24.40 24.30 24.65 25.21 24.78 25.74 26.33 26.24 26.15 24.83 24.61 24.96 24.54 23.85 23.15 22.96 23.88 22.98 22.59 21.62 21.55 22.15 22.59 22.70 21.79 21.90 22.54 23.41 23.34 23.40 23.40 23.92 25.28
24.00 23.24 23.09 23.17 22.65 22.66 22.29 22.31 23.12 22.92 23.65 23.38 23.75 23.78 23.51 23.79 25.19 25.15 24.50 23.23 22.76 23.08 23.39 23.27 23.18 22.59 23.39 24.48 21.00 19.38 19.25 19.48 22.62 23.96 24.42 24.61 24.78 25.30 25.51 23.93 22.68 23.00 22.77
22.54 21.83 22.12 21.94 21.80 21.89 21.77 21.70 22.19 22.45 22.17 22.51 22.30 23.09 23.65 22.37 23.90 24.16 23.78 22.61 21.08 21.34 22.00 22.38 23.31 22.04 23.39 23.59 19.76 18.10 15.21 16.51 18.38 17.96 16.94 18.34 20.57 20.89 24.28 23.31 24.05 21.94 21.61
20.99 20.88 20.65 20.64 20.31 21.19 20.89 21.15 20.60 20.45 20.76 20.67 21.00 22.07 22.45 22.18 21.52 23.17 23.47 21.59 21.04 20.33 20.00 20.45 20.90 22.44 22.59 22.14 21.99 16.99 16.74 18.96 16.59 13.65 14.29 14.69 15.89 17.20 19.73 22.13 22.64 22.48 20.19
19.48 19.28 18.92 18.53 19.43 19.95 18.95 19.63 19.28 19.30 19.12 19.37 19.89 20.29 21.69 21.37 21.73 21.92 22.51 22.90 23.00 19.73 19.50 19.73 19.87 21.91 20.99 20.66 18.73 19.27 19.37 16.26 12.19 11.13 10.92 10.94 12.04 13.45 15.96 18.63 21.71 22.66 22.65
16.96 16.13 16.79 17.12 17.80 18.00 17.80 17.91 18.22 18.95 18.23 18.27 18.20 18.33 18.55 19.88 19.93 21.12 20.88 22.13 21.63 19.98 20.08 20.53 20.94 19.62 18.80 16.57 16.87 17.01 13.70 10.58 9.33 7.73 7.92 9.36 10.82 12.20 15.21 18.55 20.72 20.94 20.78
14.95 15.75 16.55 15.75 15.62 16.88 17.42 17.82 17.34 17.66 16.76 17.09 16.59 16.07 16.44 17.08 17.54 18.25 18.98 19.01 19.88 20.19 19.60 17.39 16.69 16.31 15.79 14.76 11.45 11.74 10.39 9.31 8.03 7.15 7.31 8.41 10.40 11.58 14.12 17.05 17.33 17.12 16.46
15.19 15.43 15.96 16.55 15.53 15.78 16.31 16.04 15.82 16.90 16.73 15.37 15.73 15.77 14.25 13.39 15.41 19.03 18.78 17.46 18.00 19.13 16.78 12.52 10.16 9.21 8.19 8.01 7.71 7.27 7.47 7.24 6.01 6.35 5.40 6.26 7.43 9.69 12.30 15.47 16.18 15.73 14.14
14.98 15.36 15.97 15.05 15.41 14.86 14.44 14.65 18.03 17.33 17.22 17.84 18.10 16.78 16.58 17.47 18.60 18.97 19.12 19.75 20.52 18.97 11.22 7.04 6.25 6.58 5.56 5.12 4.56 4.55 5.22 4.75 5.09 4.60 4.61 4.95 5.81 7.39 9.51 12.67 14.99 14.02 12.82
13.05 14.87 14.30 10.56 13.98 13.10 12.51 11.72 10.52 13.92 16.27 16.63 16.60 16.75 16.69 16.83 17.02 17.25 18.16 19.08 17.33 13.98 5.84 4.97 4.69 4.56 4.03 3.87 3.70 3.83 2.91 3.96 4.54 3.89 3.33 3.64 5.24 6.20 7.46 9.73 12.70 12.69 11.74
7.88 7.24 11.61 13.12 12.23 11.46 11.07 10.15 9.38 8.52 7.73 9.03 12.94 13.61 14.93 15.15 15.04 15.81 17.22 15.03 5.68 6.15 4.48 3.48 2.72 3.15 3.05 2.59 2.79 2.55 2.69 3.06 2.83 2.78 2.12 2.56 3.72 4.55 5.00 7.18 10.31 10.92 10.39
8.66 11.45 11.20 11.53 10.53 8.64 7.65 8.51 8.54 7.86 7.39 7.19 7.80 10.11 10.73 12.26 12.82 14.44 13.87 5.39 3.11 2.10 2.57 2.27 2.53 2.23 2.03 2.30 2.48 2.27 2.06 1.65 1.80 1.31 1.15 1.31 2.15 3.47 3.14 5.73 8.43 10.57 10.33
6.80 6.20 5.78 9.85 9.17 8.04 7.87 6.85 6.47 6.25 5.77 5.11 5.17 5.72 6.40 5.44 5.88 5.30 4.70 3.49 2.10 1.61 1.72 1.18 1.44 1.50 0.93 1.39 1.58 1.44 0.61 0.63 0.57 0.35 0.41 0.75 1.37 2.67 2.85 4.12 6.79 8.32 8.78
10.81 10.18 5.20 6.77 6.96 7.02 6.06 4.59 4.61 4.07 3.27 3.61 4.18 5.54 10.74 6.93 2.91 1.56 1.46 1.62 1.08 0.79 0.53 0.54 0.16 0.10 0.44 0.52 0.40 -0.03 -0.89 -1.24 -0.27 -0.35 -0.29 0.15 0.31 0.75 3.36 4.21 5.95 8.20 8.76
9.11 9.09 8.38 6.42 6.63 5.04 4.38 4.18 2.96 2.66 2.51 2.16 2.58 3.69 8.65 1.89 1.44 0.89 0.59 0.30 0.43 0.58 0.61 0.09 -0.69 -0.77 -0.87 -1.04 -1.02 -1.20 -2.58 -3.22 -1.89 -1.13 -1.01 -0.72 -0.12 1.58 3.12 3.36 4.43 6.48 7.27
7.40 7.14 6.62 5.52 4.52 2.28 1.37 2.15 2.58 2.44 1.84 1.25 1.00 0.56 0.75 0.42 -0.12 -0.81 -1.20 -1.02 -1.07 -1.29 -0.75 -1.33 -2.03 -2.64 -2.08 -1.72 -1.28 -1.92 -3.44 -3.51 -2.46 -1.80 -2.14 -1.62 -0.75 1.06 3.28 2.60 2.96 4.34 5.65
6.86 6.34 5.45 5.14 3.84 2.72 2.15 2.15 2.33 0.49 -0.17 -0.12 0.27 -0.03 -0.57 -0.92 -1.74 -2.44 -2.74 -2.44 -2.75 -2.97 -2.87 -3.59 -4.02 -4.67 -4.38 -4.16 -3.47 -2.74 -2.15 -2.50 -2.71 -3.11 -2.33 -1.37 -0.37 1.85 3.59 2.46 2.56 3.55 4.95
5.57 4.66 3.98 3.24 2.85 2.19 1.59 0.51 0.40 0.22 0.04 -0.23 -0.88 -1.42 -1.90 -2.54 -3.38 -3.80 -3.80 -4.01 -4.73 -5.35 -5.67 -5.53 -5.35 -5.85 -5.99 -5.88 -5.04 -4.53 -4.02 -2.52 -3.71 -3.44 -1.31 0.04 1.11 4.07 2.84 2.04 1.81 2.46 3.68
4.22 3.44 2.65 1.98 0.82 0.29 0.05 -0.21 -0.61 -0.84 -1.57 -1.95 -2.33 -2.98 -3.60 -4.43 -4.71 -5.07 -5.56 -6.20 -6.69 -6.86 -7.34 -6.92 -6.69 -6.86 -5.87 -5.04 -4.64 -2.77 -1.82 1.68 0.70 1.86 2.69 2.78 3.91 3.98 3.01 1.25 0.42 1.29 2.05
MSLP
1029.91 1029.97 1030.24 1030.57 1030.62 1030.54 1030.52 1030.54 1030.67 1030.45 1030.34 1030.03 1029.93 1029.71 1029.91 1029.76 1029.36 1029.33 1029.35 1029.01 1028.77 1028.46 1028.32 1027.93 1027.39 1026.85 1026.20 1025.69 1025.39 1024.97 1024.29 1023.88 1022.43 1018.36 1019.25 1019.12 1018.59 1017.65 1017.28 1016.65 1015.83 1014.98 1014.26
1030.18 1030.65 1030.86 1031.06 1031.12 1031.23 1031.30 1030.87 1030.75 1030.65 1031.00 1030.72 1030.30 1030.23 1030.22 1029.89 1029.88 1029.67 1029.64 1029.57 1029.30 1029.00 1028.73 1028.13 1027.80 1027.30 1026.81 1026.34 1025.82 1025.59 1024.79 1024.08 1023.28 1021.01 1019.76 1019.32 1018.40 1017.68 1017.02 1016.28 1015.45 1014.81 1013.71
1030.80 1031.07 1031.20 1031.54 1031.41 1031.17 1031.20 1031.40 1031.27 1031.39 1031.34 1031.14 1030.62 1030.33 1030.62 1030.37 1030.49 1030.37 1030.35 1030.12 1029.60 1029.36 1028.71 1028.28 1027.96 1027.59 1027.09 1026.98 1026.47 1025.73 1024.98 1024.32 1023.81 1022.49 1019.52 1019.38 1018.38 1017.81 1016.41 1015.78 1014.90 1014.14 1012.87
1030.93 1031.31 1031.72 1032.09 1032.08 1032.24 1032.13 1031.93 1032.00 1031.64 1031.66 1031.50 1031.10 1030.78 1030.85 1031.03 1031.19 1030.92 1030.72 1030.30 1029.79 1029.51 1029.00 1028.48 1028.13 1028.18 1027.53 1027.04 1026.66 1026.26 1025.41 1024.71 1023.89 1022.96 1021.06 1019.00 1018.62 1017.66 1016.81 1015.59 1013.83 1013.63 1012.09
1031.47 1031.78 1032.17 1032.60 1032.95 1032.75 1032.76 1032.58 1032.22 1031.94 1031.63 1032.03 1031.63 1031.41 1031.29 1031.33 1031.51 1031.29 1031.15 1030.69 1029.88 1029.47 1028.80 1028.50 1028.37 1028.16 1027.58 1027.41 1026.96 1026.32 1025.89 1024.50 1023.63 1022.43 1021.07 1019.72 1018.45 1017.28 1016.86 1015.77 1014.26 1012.76 1011.41
1031.78 1032.22 1032.53 1032.86 1033.17 1032.93 1032.67 1032.52 1032.42 1032.35 1032.33 1032.48 1032.09 1031.73 1031.65 1031.30 1031.56 1031.32 1031.21 1030.90 1030.00 1029.35 1029.16 1028.89 1028.00 1027.43 1027.81 1027.45 1026.79 1026.40 1025.85 1024.54 1023.60 1022.66 1021.09 1019.88 1018.37 1017.95 1016.76 1015.64 1014.25 1012.62 1010.03
1032.22 1032.75 1032.99 1033.22 1033.14 1032.87 1032.89 1033.03 1032.82 1032.66 1032.74 1032.80 1032.22 1031.84 1031.61 1031.56 1031.60 1031.63 1031.62 1030.71 1030.18 1029.96 1029.30 1028.61 1028.07 1027.86 1027.67 1026.90 1026.48 1025.93 1025.28 1024.85 1024.05 1022.59 1021.09 1020.12 1018.62 1017.99 1016.75 1014.90 1013.90 1012.38 1010.39
1032.74 1033.12 1033.42 1033.33 1033.38 1033.23 1033.13 1033.30 1033.01 1032.87 1033.00 1032.70 1032.39 1032.23 1031.89 1031.60 1031.85 1031.78 1031.60 1030.91 1030.38 1029.56 1029.01 1028.69 1028.26 1027.77 1027.41 1027.00 1025.88 1024.96 1024.44 1024.05 1023.21 1022.22 1021.54 1020.07 1018.93 1017.45 1016.65 1014.97 1013.21 1011.47 1009.65
1033.11 1033.55 1033.58 1033.49 1033.44 1033.46 1033.69 1033.40 1033.23 1033.31 1033.10 1032.71 1032.73 1032.43 1032.14 1032.04 1031.93 1031.65 1031.46 1030.79 1029.81 1029.29 1029.03 1028.70 1028.22 1027.71 1027.34 1026.43 1025.62 1024.70 1023.82 1023.13 1022.47 1021.53 1020.62 1019.53 1018.31 1016.97 1015.45 1013.77 1011.97 1010.52 1008.21
1033.49 1033.69 1033.49 1033.76 1033.75 1033.61 1033.76 1033.76 1033.70 1033.61 1033.35 1033.05 1032.78 1032.49 1032.29 1032.06 1031.88 1031.67 1031.27 1030.60 1029.86 1029.42 1028.91 1028.29 1027.89 1027.64 1027.16 1026.62 1025.94 1025.03 1023.83 1022.79 1021.65 1020.29 1019.44 1018.52 1017.61 1016.18 1014.61 1013.36 1011.63 1009.85 1008.45
1033.63 1033.60 1033.78 1033.92 1033.94 1034.09 1034.24 1034.18 1033.87 1033.61 1033.25 1033.01 1032.79 1032.49 1032.16 1032.03 1031.93 1031.66 1031.42 1030.82 1030.09 1029.28 1028.80 1028.15 1027.90 1027.57 1027.02 1026.51 1025.84 1025.40 1024.44 1023.09 1021.98 1021.12 1019.72 1018.08 1016.63 1015.45 1014.00 1012.64 1011.69 1010.46 1008.65
1033.57 1033.72 1034.09 1034.39 1034.48 1034.34 1034.30 1034.04 1033.90 1033.63 1033.34 1033.10 1032.77 1032.44 1032.22 1032.14 1032.03 1031.64 1031.19 1030.61 1029.98 1029.47 1028.71 1028.31 1027.80 1027.08 1026.65 1026.21 1025.78 1025.13 1024.33 1023.60 1022.59 1021.31 1019.87 1018.22 1016.57 1015.01 1013.70 1012.35 1010.89 1009.67 1008.75
1033.96 1034.39 1034.58 1034.64 1034.56 1034.47 1034.35 1034.07 1033.77 1033.59 1033.46 1033.21 1032.98 1032.67 1032.26 1031.90 1031.48 1031.15 1030.94 1030.34 1029.88 1029.24 1028.75 1028.06 1027.50 1027.07 1026.63 1026.29 1025.79 1025.08 1024.52 1023.65 1022.53 1021.35 1020.07 1018.49 1017.08 1015.42 1013.55 1011.65 1010.13 1008.95 1007.68
1034.25 1034.34 1034.42 1034.49 1034.48 1034.37 1034.23 1034.07 1033.94 1033.72 1033.58 1033.43 1033.20 1032.81 1032.30 1031.79 1031.54 1031.30 1030.80 1030.28 1029.86 1029.04 1028.41 1027.94 1027.76 1027.34 1026.90 1026.33 1025.71 1025.00 1024.30 1023.63 1022.88 1021.66 1020.29 1018.93 1017.22 1015.20 1013.19 1011.63 1010.04 1008.75 1007.45
1034.18 1034.20 1034.20 1034.24 1034.35 1034.24 1034.17 1034.08 1034.00 1033.80 1033.71 1033.56 1033.22 1032.88 1032.60 1032.16 1031.76 1031.19 1030.72 1030.12 1029.37 1028.67 1028.11 1028.29 1027.86 1027.38 1026.68 1026.07 1025.44 1024.83 1024.13 1023.44 1022.66 1021.67 1020.42 1018.74 1017.24 1015.49 1013.47 1011.74 1010.29 1008.92 1007.74
1034.03 1034.02 1033.98 1034.10 1034.06 1034.09 1034.03 1033.83 1033.54 1033.59 1033.52 1033.24 1032.85 1032.74 1032.57 1032.17 1031.61 1031.10 1030.65 1029.83 1028.83 1028.61 1028.43 1028.38 1027.87 1027.36 1026.77 1026.04 1025.29 1024.41 1023.92 1023.28 1022.59 1021.67 1020.35 1019.13 1017.58 1015.90 1013.94 1012.03 1010.54 1009.38 1008.15
1033.87 1033.79 1033.95 1034.26 1033.96 1033.99 1034.01 1033.90 1033.60 1033.21 1032.98 1032.69 1032.54 1032.42 1032.30 1031.97 1031.46 1030.96 1030.18 1029.15 1029.01 1029.01 1028.98 1028.46 1027.94 1027.37 1026.66 1026.03 1025.36 1024.64 1023.77 1023.21 1022.45 1021.37 1020.39 1019.21 1017.83 1016.27 1014.57 1012.58 1010.86 1009.73 1008.61
1034.13 1034.16 1034.06 1033.92 1033.98 1034.03 1033.97 1033.89 1033.75 1033.36 1032.87 1032.50 1032.46 1032.39 1031.97 1031.63 1031.19 1030.58 1029.61 1029.10 1029.33 1029.18 1029.01 1028.47 1027.84 1027.24 1026.53 1025.83 1025.14 1024.48 1023.72 1022.90 1022.16 1021.21 1020.23 1019.24 1018.01 1016.62 1014.94 1013.21 1011.56 1010.23 1009.21
1033.89 1033.65 1033.72 1033.78 1033.93 1034.03 1034.11 1033.88 1033.68 1033.48 1033.19 1032.80 1032.32 1031.81 1031.85 1031.41 1030.80 1029.99 1029.80 1029.99 1029.53 1029.07 1028.72 1028.29 1027.83 1027.20 1026.42 1025.71 1025.05 1024.34 1023.65 1022.75 1021.95 1021.08 1020.16 1019.18 1018.05 1016.77 1015.25 1013.76 1012.12 1010.69 1009.77
1033.75 1033.75 1033.82 1033.71 1033.75 1033.82 1033.79 1033.75 1033.64 1033.50 1033.30 1033.06 1032.68 1032.24 1031.87 1031.66 1030.84 1030.45 1030.41 1030.12 1029.67 1029.08 1028.53 1028.05 1027.50 1026.92 1026.22 1025.45 1024.75 1024.03 1023.31 1022.47 1021.64 1020.85 1019.99 1019.12 1018.08 1016.97 1015.60 1014.10 1012.54 1011.08 1010.11
1033.24 1033.37 1033.70 1033.76 1033.72 1033.77 1033.82 1033.79 1033.65 1033.52 1033.29 1032.95 1032.54 1032.21 1031.78 1031.33 1031.19 1030.89 1030.38 1029.93 1029.48 1028.85 1028.28 1027.77 1027.23 1026.62 1025.90 1025.17 1024.49 1023.76 1023.10 1022.29 1021.45 1020.64 1019.76 1018.80 1017.91 1016.73 1015.50 1014.36 1012.94 1011.58 1010.56
1033.04 1033.09 1033.21 1033.33 1033.35 1033.47 1033.52 1033.54 1033.51 1033.34 1033.14 1032.85 1032.36 1031.99 1031.61 1031.51 1031.07 1030.67 1030.24 1029.77 1029.28 1028.77 1028.23 1027.60 1026.93 1026.35 1025.70 1024.98 1024.29 1023.49 1022.77 1021.95 1021.06 1020.32 1019.44 1018.54 1017.58 1016.42 1015.24 1014.23 1013.06 1011.84 1010.90
1032.63 1032.70 1032.77 1032.94 1033.10 1033.26 1033.39 1033.26 1033.07 1032.95 1032.79 1032.57 1032.25 1031.88 1031.55 1031.22 1030.86 1030.48 1030.06 1029.60 1029.06 1028.47 1027.85 1027.30 1026.62 1025.92 1025.30 1024.59 1023.97 1023.35 1022.51 1021.60 1020.77 1020.16 1019.30 1018.17 1017.12 1016.04 1014.90 1014.04 1013.17 1012.09 1011.17
1032.22 1032.36 1032.48 1032.63 1032.87 1032.94 1032.90 1032.75 1032.68 1032.70 1032.57 1032.28 1031.92 1031.57 1031.20 1030.85 1030.48 1030.09 1029.73 1029.22 1028.71 1028.17 1027.55 1026.94 1026.26 1025.49 1024.63 1023.89 1023.24 1022.52 1021.73 1021.01 1020.39 1019.65 1018.95 1017.77 1016.58 1015.41 1014.41 1013.84 1013.11 1012.30 1011.48
1031.89 1032.11 1032.28 1032.38 1032.39 1032.44 1032.47 1032.50 1032.42 1032.29 1032.05 1031.79 1031.46 1031.19 1030.84 1030.48 1030.05 1029.64 1029.23 1028.76 1028.28 1027.79 1027.04 1026.39 1025.61 1024.84 1024.02 1023.11 1022.22 1021.46 1020.68 1019.96 1019.51 1018.91 1017.99 1016.91 1015.82 1014.53 1014.11 1013.60 1012.99 1012.32 1011.66
1031.55 1031.74 1031.90 1032.02 1032.10 1032.15 1032.14 1032.10 1031.98 1031.82 1031.58 1031.33 1031.13 1030.83 1030.44 1030.04 1029.65 1029.21 1028.72 1028.27 1027.83 1027.22 1026.50 1025.66 1024.76 1024.01 1023.05 1022.06 1021.07 1020.12 1019.29 1018.55 1017.86 1017.02 1016.41 1015.60 1014.69 1013.91 1013.59 1013.26 1012.81 1012.32 1011.74
Wind_Speed
8 8 8 7 6 7 6 7 6 7 9 9 9 9 9 9 9 9 9 10 10 9 9 9 10 10 7 7 8 8 8 9 14 17 14 14 17 16 16 16 15 16 15
8 7 7 6 6 6 7 9 9 9 8 8 8 9 10 11 10 11 11 10 9 9 9 9 10 9 10 10 8 10 9 10 11 23 16 15 16 16 18 19 14 14 15
7 6 6 6 6 8 8 8 8 8 8 9 9 10 10 9 10 10 10 10 9 9 9 9 10 11 10 9 10 10 10 10 11 14 20 14 15 14 16 15 16 16 14
7 7 7 7 8 7 7 7 6 7 7 8 8 9 9 8 11 11 11 11 9 9 9 9 10 11 12 12 11 13 12 12 13 14 16 17 14 14 14 16 17 13 15
7 7 7 5 5 5 5 6 7 8 8 7 8 8 7 5 8 10 10 11 9 10 9 11 10 10 14 17 12 12 14 13 13 14 16 16 16 15 16 14 18 17 16
7 6 5 4 4 5 7 8 7 7 7 6 6 6 5 4 13 16 14 11 11 10 10 10 10 11 15 21 20 25 23 17 18 15 16 18 23 18 16 16 17 18 23
6 5 4 3 4 6 6 6 6 6 5 5 5 6 7 6 14 17 19 10 11 10 10 11 11 10 14 13 21 26 21 26 27 21 21 19 23 20 22 23 20 19 20
4 3 3 3 4 5 4 4 4 4 5 6 6 7 7 6 13 17 20 11 10 10 11 13 13 13 13 20 20 19 19 17 17 15 17 20 21 24 23 22 25 25 21
3 3 3 4 3 3 3 5 5 5 5 5 6 7 8 8 13 16 16 11 11 12 12 12 12 13 23 31 22 21 21 18 19 29 33 36 37 37 32 18 16 17 18
3 3 3 2 2 3 4 4 4 5 5 5 6 6 7 8 13 16 16 9 12 11 11 12 17 20 28 31 20 18 18 19 21 22 21 21 23 22 31 19 16 15 17
3 2 2 2 3 3 4 4 4 4 5 6 7 7 6 7 9 15 18 11 10 11 11 11 10 24 30 30 29 14 18 24 23 17 16 16 16 15 14 14 18 16 15
2 1 1 2 3 2 3 4 4 4 5 6 6 6 5 7 10 13 18 19 21 13 12 11 12 30 30 29 22 26 28 23 12 13 14 15 16 16 15 17 19 16 14
2 1 2 2 3 3 3 3 4 3 4 5 5 6 6 6 6 16 18 22 22 16 11 20 29 29 27 19 23 26 19 10 12 13 13 15 15 17 20 18 16 17 17
3 3 3 3 2 3 3 3 3 3 4 4 5 6 6 7 7 7 9 10 16 13 17 12 19 22 21 19 12 13 10 10 11 12 13 14 15 15 16 15 14 14 13
3 3 4 3 3 3 3 3 4 4 4 4 5 5 6 8 8 17 17 12 12 14 18 10 9 9 9 10 9 10 10 11 11 11 13 14 14 15 15 15 13 12 12
5 4 3 3 3 3 3 4 7 9 10 11 11 7 5 14 19 21 23 24 24 25 10 9 9 9 10 11 11 11 10 12 11 12 12 13 14 15 16 15 12 11 11
4 3 3 3 3 3 3 4 5 4 9 9 9 11 14 16 18 21 23 23 22 18 7 8 9 9 10 10 10 10 12 11 13 11 12 13 14 14 18 15 13 11 11
4 3 3 3 3 3 3 4 4 5 6 5 6 11 14 16 19 22 21 19 9 7 7 9 9 10 10 11 10 11 11 11 11 11 12 12 13 13 14 14 14 13 10
6 5 5 4 3 3 4 4 4 5 5 7 8 10 7 17 21 19 20 7 9 9 8 9 9 10 10 10 10 10 11 11 11 11 11 11 12 12 14 14 14 16 14
5 5 3 3 3 4 3 4 4 5 5 6 6 7 7 8 9 9 7 8 8 9 9 10 10 10 10 11 10 10 11 11 11 10 11 11 11 11 12 14 13 13 10
4 4 4 3 3 3 3 4 4 5 5 6 7 7 17 10 9 8 9 8 9 9 10 10 10 10 10 11 11 10 11 11 11 11 10 10 11 12 11 12 12 12 9
3 4 4 4 3 3 4 4 4 5 6 7 7 8 17 6 7 8 9 9 9 9 9 11 10 10 10 10 11 11 11 13 11 11 11 11 11 11 11 11 12 11 9
4 5 4 4 4 4 4 5 5 5 6 7 7 7 7 7 7 8 9 9 9 10 9 10 11 11 10 10 10 11 11 12 12 11 12 12 12 12 10 10 11 11 9
5 5 5 4 3 4 4 5 5 6 7 7 7 7 7 7 8 9 9 9 9 10 10 10 10 14 13 12 11 11 11 12 11 12 16 13 13 14 8 10 9 11 9
4 4 4 4 4 4 4 5 6 6 6 6 7 7 7 8 8 8 9 8 9 10 11 11 10 14 16 19 19 21 20 20 16 16 13 14 16 12 8 7 9 9 9
4 5 4 3 4 4 5 5 5 6 6 6 7 7 8 8 8 9 9 9 9 10 13 11 13 17 20 17 19 21 21 21 18 17 13 12 12 8 6 7 9 7 8
Wind_Direction
81 72 71 62 50 51 50 45 29 25 21 25 25 27 27 24 25 19 8 7 3 358 356 354 346 344 345 345 341 334 330 323 305 305 311 320 313 316 311 307 303 299 290
81 77 69 63 60 54 41 36 26 28 22 23 29 30 25 24 19 13 6 357 352 349 345 345 340 341 338 341 336 326 314 311 300 301 308 309 308 309 304 301 297 292 289
84 80 70 57 49 44 37 29 28 19 23 22 28 30 24 22 17 8 358 347 344 340 341 339 339 337 341 338 329 329 317 314 311 297 300 305 306 307 303 297 293 289 283
88 78 61 39 37 32 30 33 26 25 25 22 25 27 25 19 16 2 351 343 338 337 334 337 338 336 339 330 333 322 322 313 310 303 299 303 304 307 301 305 299 295 294
88 74 65 48 35 40 33 27 26 21 22 11 17 19 20 20 13 358 347 335 332 330 339 340 333 330 321 339 323 324 319 318 309 304 300 301 305 309 305 303 294 301 295
86 81 69 57 41 34 27 21 20 14 10 360 8 7 4 7 5 358 354 329 335 337 334 330 334 335 343 323 328 328 321 317 309 307 305 302 303 303 304 301 297 297 296
88 75 62 46 45 35 23 16 15 8 349 344 348 359 358 353 2 353 348 331 338 333 336 339 337 337 326 330 328 320 319 313 308 307 304 304 305 306 304 300 294 287 285
105 100 82 53 44 26 16 360 353 350 339 348 352 346 345 347 356 351 348 337 331 331 346 337 335 330 335 332 324 325 320 314 313 311 303 302 300 300 296 294 292 287 283
123 103 64 45 35 2 343 346 352 338 331 344 333 337 343 337 348 348 346 336 334 342 336 332 329 331 330 334 331 322 319 317 313 311 308 306 303 302 300 297 292 290 286
129 106 62 26 341 342 344 330 332 319 319 324 328 331 327 330 340 343 347 335 333 331 328 328 333 333 330 331 327 324 323 319 320 319 316 308 306 300 303 300 299 310 300
153 126 69 6 327 321 318 305 311 309 319 329 325 324 318 333 332 338 342 337 334 331 327 328 328 325 329 329 329 328 317 321 323 315 310 310 311 310 306 311 309 304 304
118 110 41 349 300 288 288 292 308 322 320 316 319 321 327 331 334 336 340 337 334 327 320 323 316 326 328 327 328 321 323 329 311 313 314 313 315 316 314 308 302 301 295
134 148 218 234 259 282 285 297 305 312 313 317 318 315 317 326 330 338 333 331 331 322 321 318 324 323 322 322 319 322 331 319 321 318 316 313 315 309 304 310 309 305 302
182 206 206 241 290 243 273 272 292 292 296 306 311 316 317 325 329 328 321 326 318 318 323 323 316 314 310 310 313 321 323 323 318 314 314 311 311 313 313 318 318 319 311
199 206 223 233 241 274 261 279 275 272 270 296 296 314 320 314 317 319 323 319 311 319 327 319 309 307 310 311 315 318 320 320 319 319 317 316 318 317 318 320 319 318 314
206 205 213 240 240 256 275 281 261 259 270 283 288 293 306 307 312 318 315 316 320 329 321 311 305 307 310 314 316 317 318 318 317 317 316 319 317 321 319 320 320 322 319
229 215 222 227 241 257 274 290 298 285 282 288 278 291 311 306 317 319 319 317 333 328 307 304 301 307 306 308 310 313 314 315 315 315 318 316 317 319 322 321 323 324 325
219 241 243 240 242 259 266 277 289 304 313 299 298 305 308 316 322 322 322 335 320 319 303 303 306 308 308 307 308 309 310 311 313 316 316 317 319 319 322 321 325 325 327
209 222 211 228 233 253 269 274 285 291 292 296 308 313 319 325 325 325 332 321 310 308 308 305 305 304 304 303 302 302 304 306 309 311 314 316 317 320 320 319 320 326 327
226 246 231 235 238 251 270 281 288 287 290 291 294 298 319 314 320 323 315 307 300 300 303 303 305 303 301 301 301 301 303 305 307 309 310 311 314 314 317 318 320 324 326
219 211 211 236 246 261 275 276 282 284 279 282 286 295 304 315 313 303 302 304 302 303 304 304 304 300 300 301 302 301 303 302 301 304 305 309 312 309 315 316 316 318 322
222 228 217 231 250 255 261 271 279 278 280 283 289 292 307 302 291 299 303 304 303 301 301 301 301 300 300 299 301 300 303 300 300 302 304 305 305 305 309 316 317 319 319
218 226 227 235 242 256 260 248 258 266 276 283 290 293 294 292 295 297 299 301 302 301 301 301 298 298 295 295 296 296 294 293 298 302 299 300 300 299 307 313 316 316 322
213 222 232 242 247 252 265 269 274 272 270 279 285 289 292 295 297 299 298 299 301 301 300 299 295 293 296 295 293 288 287 289 290 292 292 291 293 298 300 308 312 313 315
205 218 228 244 252 261 274 270 268 274 277 282 287 289 293 295 297 298 298 300 300 298 295 294 291 292 293 293 290 290 286 288 285 281 284 285 287 289 294 301 308 313 312
206 220 234 246 252 251 256 267 271 276 279 282 284 287 292 296 296 298 298 296 294 294 295 290 288 288 290 290 288 287 289 290 286 280 282 282 288 286 288 296 303 309 308